Content
SEND FEEDBACK

Daily
Averages
Monthly
Summary
Mexico

CANCUN, QUINTANA ROO


Home > North America > Mexico > Quintana Roo
Elevation: 9 meters     Latitude: 21 09N     Longitude: 086 49W

WEATHER
 
SELECT A DAY
Number of Records: 163,584;   Date Range: 1/1/95 - 7/11/14
 
SHARE

PRINT THIS DATA

[ ← Previous Day ]
WEATHER ALMANAC - 15 JANUARY, 2013
[ Next Day → ]
[ °F ]   °C
Weather ElementAverageHighLow
Temperature25.8 °C28 °C (9:45 am)24 °C (5:40 am)
Dewpoint20.3 °C21 °C (1:44 am)19 °C (6:43 am)
Humidity71.9 %78 % (1:44 am)62 % (9:45 am)
Barometer1015.6 hPa1017.6 hPa (8:41 am)1014.2 hPa (11:46 pm)
Wind Speed14.6 km/h22.2 km/h (1:43 pm)
Weather ElementAverage
Visibility11.3 km
Wind DirectionESE (115.7 °)

Weather ElementTotal
Precipitation---
Cooling Degree Days7.7 (Base 18.3)
Growing Degree Days16 (Base 10)
Averaged from 23 records on 15 January, 2013
WEATHER CONDITIONS BREAKOUT
WIND DIRECTION BREAKOUT
WEATHER BY HOUR - 15 JANUARY, 2013
[ °F ]   °C
Local TimeTemperatureDewpointHumidityBarometerVisibilityWind DirectionWind SpeedGust SpeedPrecipitationEventsConditions
1:44 AM25 °C21 °C78 %1016.3 hPa11.3 kmESE (110°)18.5 km/hScattered Clouds
2:48 AM25 °C21 °C78 %1015.9 hPa11.3 kmESE (110°)14.8 km/hScattered Clouds
3:55 AM25 °C20 °C74 %1015.9 hPa11.3 kmESE (120°)20.4 km/hScattered Clouds
4:46 AM25 °C20 °C74 %1015.9 hPa11.3 kmEast (100°)13 km/hScattered Clouds
5:40 AM24 °C20 °C78 %1015.9 hPa11.3 kmESE (110°)13 km/hPartly Cloudy
6:43 AM24 °C19 °C73 %1016.6 hPa11.3 kmESE (110°)13 km/hPartly Cloudy
7:47 AM25 °C20 °C74 %1016.9 hPa11.3 kmESE (110°)14.8 km/hScattered Clouds
8:41 AM27 °C20 °C65 %1017.6 hPa11.3 kmESE (120°)18.5 km/hScattered Clouds
9:45 AM28 °C20 °C62 %1017.6 hPa11.3 kmESE (120°)20.4 km/hScattered Clouds
10:43 AM28 °C20 °C62 %1016.9 hPa11.3 kmESE (120°)20.4 km/hScattered Clouds
11:40 AM28 °C20 °C62 %1016.3 hPa11.3 kmESE (110°)16.7 km/hScattered Clouds
12:45 PM27 °C20 °C65 %1015.2 hPa11.3 kmSE (140°)14.8 km/hScattered Clouds
1:43 PM28 °C21 °C66 %1014.6 hPa11.3 kmSE (140°)22.2 km/hScattered Clouds
2:47 PM27 °C21 °C70 %1014.9 hPa11.3 kmESE (120°)18.5 km/hScattered Clouds
3:41 PM27 °C21 °C70 %1014.6 hPa11.3 kmESE (110°)13 km/hScattered Clouds
4:42 PM26 °C20 °C69 %1014.9 hPa11.3 kmEast (100°)11.1 km/hScattered Clouds
5:43 PM25 °C21 °C78 %1015.2 hPa11.3 kmSE (130°)13 km/hScattered Clouds
6:45 PM25 °C21 °C78 %1015.2 hPa11.3 kmEast (100°)7.4 km/hScattered Clouds
7:47 PM25 °C21 °C78 %1015.2 hPa11.3 kmESE (110°)11.1 km/hPartly Cloudy
8:41 PM25 °C20 °C74 %1014.9 hPa11.3 kmEast (100°)13 km/hScattered Clouds
9:48 PM25 °C20 °C74 %1015.2 hPa11.3 kmESE (120°)9.3 km/hScattered Clouds
10:47 PM25 °C20 °C74 %1015.2 hPa11.3 kmESE (120°)11.1 km/hPartly Cloudy
11:46 PM24 °C20 °C78 %1014.2 hPa11.3 kmSE (130°)9.3 km/hClear
Hourly data recorded from MMUN, located 0 kilometers away from Cancun, Quintana Roo







STORIES FROM OUR PARTNERS